FENGYUN 1C DEB, 31226

Orbit data source: Space-Track

FENGYUN 1C DEB, 31226 is space debris in SSO originally from a launch on Mon, 10 May 1999 UTC launched from the Taiyaun Space Center, China (TSC). Fengyun 1C debris stems from the Chinese weather satellite Fengyun-1C, which was intentionally destroyed by a Chinese anti-satellite missile in 2007. This event dramatically increased the amount of space debris, with thousands of trackable fragments posing hazards to satellites and human spaceflight. The Fengyun 1C debris cloud has become a focal point in discussions about space sustainability and the need for international regulations to prevent the creation of new debris.

Loading next visibility...
Identifier
31226, 1999-025BLG
Orbit
SSO
Country
Flag of CNCN / PRC
Related business
Manufacturer
Unknown
Mission
Spacecraft
Bus & Motor
Unknown
Mass
Unknown
Launch date (UTC)
1999-05-10 (27 years ago)
Launch vehicle
Unknown
Launch site
Taiyaun Space Center, China (TSC)
Object type
Payload
Rocket body
Debris
Shape & HBR
Unknown shape, 0.1 m
Radar Cross Section
Small (<0.1 m²)

Expand to show TLE details & history
Last TLE update: 21 hours ago

TLE from 21 hours ago
0 FENGYUN 1C DEB
1 31226U 99025BLG 25351.26812302  .00000756  00000-0  30279-3 0  9991
2 31226  98.3503 350.8791 0127036 182.6246 177.4284 14.26701230621182
Epoch: 2025-12-17T06:26Z
TLE epoch observation values (Epoch: 2025-12-17T06:26:05.828Z)
Latitude
-0.00003°
Longitude
168.2144°
Altitude
896.866 km
Speed
7.357 km/s
True Right ascension
23h 23m 30s
True Declination
0° 00' 00"
Sunlit
Object was in daylight at epoch
Visualization orbit readout
Latitude
Unknown
Longitude
Unknown
Altitude
Unknown
Speed
Unknown
Apparent Right ascension
Unknown
Apparent Declination
Unknown
Sunlit
N/A
Visualization observer readout
Local Sidereal Time
02:07:43
Azimuth
Unknown
Elevation
Unknown
Doppler factor
Unknown
Orbital elements
Apogee altitude
891.098 km
Perigee altitude
708.724 km
Semi-major axis
7,178.048 km
Eccentricity
0.0127
Inclination
98.3503°
RAAN
350.8791°
Arg. of periapsis
182.6246°
True anomaly
177.49269°
Mean anomaly
177.4284°
Eccentric anomaly
177.46065°
Mean motion
3.56889 °/min
Orbital period
100.87 mins
BSTAR
0.00030279
Loading maneuver chart data...
Computing Atmospheric mass density...

Documentation

Showing up to 5 results
|